Tracking 19831 objects as of 23-Aug-2019
HD Live streaming from Space Station
objects crossing your sky now

INSAT 4A

Track INSAT 4A now!
INSAT 4A is classified as:


NORAD ID: 28911
Int'l Code: 2005-049A
Perigee: 35,772.5 km
Apogee: 35,805.5 km
Inclination: 0.0 °
Period: 1,435.9 minutes
Semi major axis: 42160 km
RCS: 12.5892 m2 (large)
Launch date: December 21, 2005
Source: India (IND)
Launch site: FRENCH GUIANA (FRGUI)
aabbcc
Your satellite tracking list
Your tracking list is empty




NASA's NSSDC Master Catalog

Two Line Element Set (TLE):
1 28911U 05049A   19234.72627172 -.00000171  00000-0  00000+0 0  9991
2 28911   0.0355 113.3653 0003915 114.0156  87.8879  1.00288562 50110
Source of the keplerian elements: AFSPC